EN

Hourly Weather Kyzlas

Today, 26 July, Monday

Time Temperature Precipitation Wind Pressure Humidity
00:00 +16°C° 0 mm 1 mps 704 mmHg 94%
01:00 +16°C° 0 mm 1 mps 703 mmHg 93%
02:00 +16°C° 0 mm 1 mps 703 mmHg 93%
03:00 +15°C° 0 mm 1 mps 703 mmHg 93%
04:00 +16°C° 0 mm 1 mps 703 mmHg 92%
05:00 +18°C° 0 mm 1 mps 703 mmHg 90%
06:00 +19°C° 0 mm 1 mps 703 mmHg 89%
07:00 +20°C° 0 mm 1 mps 703 mmHg 83%
08:00 +22°C° 0 mm 1 mps 703 mmHg 76%
09:00 +24°C° 0 mm 1 mps 703 mmHg 69%
10:00 +26°C° 0 mm 2 mps 702 mmHg 62%
11:00 +27°C° 0 mm 2 mps 702 mmHg 55%
12:00 +28°C° 0 mm 2 mps 702 mmHg 49%
13:00 +28°C° 0 mm 2 mps 702 mmHg 51%
14:00 +28°C° 0 mm 3 mps 702 mmHg 53%
15:00 +27°C° 0 mm 3 mps 702 mmHg 55%
16:00 +27°C° 0 mm 3 mps 702 mmHg 57%
17:00 +27°C° 0 mm 3 mps 702 mmHg 58%
18:00 +27°C° 0 mm 3 mps 702 mmHg 61%
19:00 +25°C° 0.2 mm 3 mps 702 mmHg 69%
20:00 +21°C° 0.2 mm 3 mps 702 mmHg 76%
21:00 +19°C° 0.2 mm 2 mps 702 mmHg 84%
22:00 +19°C° 0.2 mm 2 mps 702 mmHg 87%
23:00 +18°C° 0.2 mm 2 mps 702 mmHg 89%

Tomorrow, 27 July, Tuesday

Time Temperature Precipitation Wind Pressure Humidity
00:00 +17°C° 0.2 mm 2 mps 702 mmHg 92%
01:00 +17°C° 0.1 mm 2 mps 702 mmHg 94%
02:00 +17°C° 0.1 mm 2 mps 702 mmHg 95%
03:00 +16°C° 0.1 mm 2 mps 702 mmHg 96%
04:00 +17°C° 0 mm 2 mps 702 mmHg 95%
05:00 +18°C° 0 mm 1 mps 702 mmHg 95%
06:00 +19°C° 0 mm 1 mps 702 mmHg 94%
07:00 +19°C° 0 mm 2 mps 703 mmHg 86%
08:00 +21°C° 0 mm 3 mps 703 mmHg 79%
09:00 +22°C° 0 mm 3 mps 703 mmHg 71%
10:00 +24°C° 0.1 mm 3 mps 703 mmHg 66%
11:00 +25°C° 0.1 mm 3 mps 703 mmHg 62%
12:00 +25°C° 0.1 mm 3 mps 703 mmHg 57%
13:00 +24°C° 0.4 mm 3 mps 703 mmHg 65%
14:00 +22°C° 0.4 mm 3 mps 703 mmHg 72%
15:00 +20°C° 0.4 mm 3 mps 704 mmHg 80%
16:00 +20°C° 0 mm 3 mps 704 mmHg 78%
17:00 +19°C° 0 mm 2 mps 704 mmHg 76%
18:00 +19°C° 0 mm 2 mps 704 mmHg 74%
19:00 +18°C° 0 mm 2 mps 704 mmHg 75%
20:00 +18°C° 0 mm 1 mps 704 mmHg 77%
21:00 +16°C° 0 mm 1 mps 704 mmHg 79%
22:00 +16°C° 0 mm 1 mps 704 mmHg 79%
23:00 +16°C° 0 mm 1 mps 704 mmHg 80%

Day after tomorrow, 28 July, Wednesday

Time Temperature Precipitation Wind Pressure Humidity
00:00 +16°C° 0 mm 1 mps 704 mmHg 80%
01:00 +16°C° 0 mm 1 mps 704 mmHg 82%
02:00 +15°C° 0 mm 1 mps 704 mmHg 83%
03:00 +15°C° 0 mm 1 mps 704 mmHg 85%
04:00 +15°C° 0.3 mm 1 mps 704 mmHg 88%
05:00 +14°C° 0.3 mm 1 mps 704 mmHg 92%
06:00 +14°C° 0.3 mm 1 mps 705 mmHg 95%
07:00 +14°C° 1 mm 1 mps 705 mmHg 95%
08:00 +13°C° 1 mm 1 mps 705 mmHg 94%
09:00 +13°C° 1 mm 1 mps 705 mmHg 94%
10:00 +13°C° 0.5 mm 1 mps 705 mmHg 94%
11:00 +13°C° 0.5 mm 1 mps 705 mmHg 94%
12:00 +12°C° 0.5 mm 0 mps 705 mmHg 93%
13:00 +13°C° 0.1 mm 1 mps 705 mmHg 93%
14:00 +13°C° 0.1 mm 1 mps 706 mmHg 92%
15:00 +13°C° 0.1 mm 1 mps 706 mmHg 92%
16:00 +13°C° 0 mm 1 mps 706 mmHg 93%
17:00 +13°C° 0 mm 1 mps 706 mmHg 93%
18:00 +13°C° 0 mm 1 mps 706 mmHg 94%
19:00 +13°C° 0 mm 1 mps 706 mmHg 94%
20:00 +12°C° 0 mm 0 mps 706 mmHg 94%
21:00 +12°C° 0 mm 0 mps 706 mmHg 94%
22:00 +11°C° 0 mm 0 mps 706 mmHg 94%
23:00 +11°C° 0 mm 0 mps 706 mmHg 94%

29 July, Thursday

Time Temperature Precipitation Wind Pressure Humidity
00:00 +11°C° 0 mm 0 mps 706 mmHg 94%
01:00 +11°C° 0 mm 0 mps 706 mmHg 94%
02:00 +11°C° 0 mm 0 mps 706 mmHg 94%
03:00 +11°C° 0 mm 0 mps 706 mmHg 94%
04:00 +11°C° 0 mm 0 mps 706 mmHg 93%
05:00 +11°C° 0 mm 0 mps 706 mmHg 93%
06:00 +12°C° 0 mm 0 mps 706 mmHg 92%
07:00 +13°C° 0 mm 0 mps 706 mmHg 86%
08:00 +15°C° 0 mm 1 mps 706 mmHg 81%
09:00 +18°C° 0 mm 1 mps 706 mmHg 75%
10:00 +19°C° 0.1 mm 1 mps 706 mmHg 69%
11:00 +19°C° 0.1 mm 2 mps 706 mmHg 63%
12:00 +20°C° 0.1 mm 2 mps 705 mmHg 56%
13:00 +21°C° 0.1 mm 2 mps 705 mmHg 56%
14:00 +22°C° 0.1 mm 1 mps 705 mmHg 55%
15:00 +22°C° 0.1 mm 1 mps 705 mmHg 54%
16:00 +21°C° 0 mm 2 mps 705 mmHg 58%
17:00 +20°C° 0 mm 2 mps 705 mmHg 62%
18:00 +20°C° 0 mm 2 mps 705 mmHg 67%
19:00 +18°C° 0 mm 2 mps 705 mmHg 73%
20:00 +16°C° 0 mm 1 mps 705 mmHg 80%
21:00 +14°C° 0 mm 1 mps 705 mmHg 86%
22:00 +14°C° 0 mm 1 mps 705 mmHg 87%
23:00 +13°C° 0 mm 1 mps 705 mmHg 87%

30 July, Friday

Time Temperature Precipitation Wind Pressure Humidity
00:00 +13°C° 0 mm 1 mps 705 mmHg 88%
01:00 +13°C° 0 mm 1 mps 705 mmHg 89%
02:00 +13°C° 0 mm 1 mps 705 mmHg 89%
03:00 +13°C° 0 mm 1 mps 705 mmHg 90%
04:00 +12°C° 0 mm 0 mps 705 mmHg 88%
05:00 +13°C° 0 mm 0 mps 706 mmHg 86%
06:00 +14°C° 0 mm 0 mps 706 mmHg 85%
07:00 +15°C° 0.2 mm 0 mps 706 mmHg 82%
08:00 +18°C° 0.2 mm 1 mps 707 mmHg 79%
09:00 +19°C° 0.2 mm 1 mps 707 mmHg 77%
10:00 +20°C° 1 mm 1 mps 707 mmHg 75%
11:00 +20°C° 1 mm 1 mps 707 mmHg 72%
12:00 +21°C° 1 mm 1 mps 707 mmHg 70%
13:00 +21°C° 0.9 mm 1 mps 707 mmHg 67%
14:00 +22°C° 0.9 mm 1 mps 707 mmHg 63%
15:00 +22°C° 0.9 mm 1 mps 708 mmHg 59%
16:00 +22°C° 0.1 mm 1 mps 708 mmHg 62%
17:00 +22°C° 0.1 mm 1 mps 708 mmHg 64%
18:00 +21°C° 0.1 mm 1 mps 708 mmHg 66%
19:00 +19°C° 0.1 mm 1 mps 708 mmHg 71%
20:00 +16°C° 0.1 mm 1 mps 708 mmHg 77%
21:00 +14°C° 0.1 mm 1 mps 709 mmHg 83%
22:00 +14°C° 0.1 mm 1 mps 709 mmHg 83%
23:00 +14°C° 0.1 mm 1 mps 709 mmHg 84%

31 July, Saturday

Time Temperature Precipitation Wind Pressure Humidity
00:00 +14°C° 0.1 mm 1 mps 709 mmHg 85%
01:00 +14°C° 0 mm 1 mps 709 mmHg 85%
02:00 +14°C° 0 mm 1 mps 709 mmHg 85%
03:00 +13°C° 0 mm 0 mps 709 mmHg 85%
04:00 +13°C° 0 mm 0 mps 710 mmHg 85%
05:00 +13°C° 0 mm 0 mps 710 mmHg 85%
06:00 +14°C° 0 mm 0 mps 710 mmHg 85%
07:00 +15°C° 0.1 mm 0 mps 710 mmHg 80%
08:00 +16°C° 0.1 mm 0 mps 710 mmHg 76%
09:00 +17°C° 0.1 mm 0 mps 710 mmHg 72%
10:00 +19°C° 0.4 mm 0 mps 710 mmHg 66%
11:00 +20°C° 0.4 mm 0 mps 710 mmHg 60%
12:00 +21°C° 0.4 mm 0 mps 710 mmHg 53%
13:00 +21°C° 0 mm 0 mps 710 mmHg 54%
14:00 +23°C° 0 mm 1 mps 710 mmHg 54%
15:00 +23°C° 0 mm 1 mps 710 mmHg 54%
16:00 +23°C° 0 mm 1 mps 710 mmHg 57%
17:00 +23°C° 0 mm 1 mps 710 mmHg 61%
18:00 +23°C° 0 mm 1 mps 710 mmHg 64%
19:00 +20°C° 0 mm 1 mps 710 mmHg 69%
20:00 +16°C° 0 mm 0 mps 710 mmHg 75%
21:00 +14°C° 0 mm 0 mps 710 mmHg 81%
22:00 +15°C° 0 mm 1 mps 710 mmHg 82%
23:00 +14°C° 0 mm 1 mps 710 mmHg 83%
Show more